Shelton, WA

8:33 PM PST on January 22, 2018 (GMT -0800)
Sanderson

Weather History for KSHN - December, 2012

Change the Weather History Date:

Tuesday, December 4, 2012

  Actual Average Record
Temperature  
Mean Temperature 48 °F -  
Max Temperature 51 °F 47 °F 58 °F (1979)
Min Temperature 42 °F 35 °F 17 °F (2013)
Degree Days  
Heating Degree Days 18    
Moisture  
Dew Point 44 °F    
Average Humidity 92    
Maximum Humidity 100    
Minimum Humidity 80    
Precipitation  
Precipitation 1.15 in - - ()
Sea Level Pressure  
Sea Level Pressure 29.66 in    
Wind  
Wind Speed 8 mph (WSW)    
Max Wind Speed 17 mph    
Max Gust Speed 28 mph    
Visibility 10 miles    
Events Rain    
Averages and records for this station are not official NWS values.
T = Trace of Precipitation, MM = Missing Value Source: NWS Daily Summary

Daily Weather History Graph

Daily Weather History Graph

Search for Another Location

Airport or City:

Trip Planner

Search our weather history database for the weather conditions in past years. The results will help you decide how hot, cold, wet, or windy it might be!

Date:

Astronomy

Dec. 04, 2012 Rise Set
Actual Time 7:42 AM PST 4:23 PM PST
Civil Twilight 7:07 AM PST 4:58 PM PST
Nautical Twilight 6:29 AM PST 5:36 PM PST
Astronomical Twilight 5:52 AM PST 6:13 PM PST
Moon 10:32 PM PST (12/4) 11:25 AM PST (12/4)
Length of Visible Light 9h 50m
Length of Day
8h 40m
Waning Gibbous, 68% of the Moon is Illuminated
Dec 4
Waning Gibbous
Dec 6
Last Quarter
Dec 13
New
Dec 19
First Quarter
Dec 28
Full

Hourly Weather History & Observations

Time (PST) Temp. Windchill Dew Point Humidity Pressure Visibility Wind Dir Wind Speed Gust Speed Precip Events Conditions
12:53 AM 46.9 °F - 44.1 °F 90% 29.57 in 10.0 mi Variable 6.9 mph - 0.22 in Rain Rain
1:02 AM 46.4 °F 44.3 °F 44.6 °F 93% 29.56 in 10.0 mi SE 4.6 mph - 0.04 in Rain Rain
1:20 AM 46.4 °F 45.2 °F 44.6 °F 93% 29.55 in 10.0 mi ENE 3.5 mph - 0.12 in Rain Heavy Rain
1:53 AM 45.0 °F 42.6 °F 44.1 °F 97% 29.55 in 10.0 mi NNE 4.6 mph - 0.23 in Rain Light Rain
2:30 AM 44.6 °F 42.2 °F 44.6 °F 100% 29.54 in 8.0 mi NNE 4.6 mph - 0.12 in Rain Rain
2:37 AM 44.6 °F 39.7 °F 44.6 °F 100% 29.53 in 9.0 mi North 9.2 mph - 0.14 in Rain Rain
2:53 AM 44.1 °F 41.5 °F 44.1 °F 100% 29.54 in 8.0 mi North 4.6 mph - 0.19 in Rain Rain
3:40 AM 44.6 °F 42.2 °F 44.6 °F 100% 29.52 in 9.0 mi North 4.6 mph - 0.12 in Rain Light Rain
3:53 AM 44.1 °F 40.8 °F 44.1 °F 100% 29.52 in 8.0 mi North 5.8 mph - 0.13 in Rain Light Rain
4:04 AM 44.6 °F 43.1 °F 44.6 °F 100% 29.52 in 9.0 mi North 3.5 mph - 0.02 in Rain Light Rain
4:36 AM 44.6 °F 41.4 °F 42.8 °F 93% 29.54 in 10.0 mi NW 5.8 mph - 0.08 in Rain Light Rain
4:53 AM 44.1 °F 42.5 °F 43.0 °F 96% 29.55 in 8.0 mi WNW 3.5 mph - 0.11 in Rain Light Rain
5:53 AM 45.0 °F 41.8 °F 44.1 °F 97% 29.58 in 10.0 mi SW 5.8 mph - 0.04 in Rain Light Rain
6:16 AM 48.2 °F - 48.2 °F 100% 29.59 in 10.0 mi SW 13.8 mph - 0.01 in Rain Light Rain
6:53 AM 51.1 °F - 48.9 °F 92% 29.62 in 10.0 mi SW 16.1 mph - 0.01 in   Overcast
7:39 AM 50.0 °F - 48.2 °F 94% 29.65 in 10.0 mi SW 13.8 mph - 0.00 in   Overcast
7:53 AM 50.0 °F - 48.0 °F 93% 29.67 in 10.0 mi SW 16.1 mph 26.5 mph 0.00 in   Overcast
8:08 AM 50.0 °F - 48.2 °F 94% 29.67 in 10.0 mi SW 13.8 mph - N/A   Overcast
8:53 AM 48.9 °F - 46.9 °F 93% 29.71 in 10.0 mi SW 15.0 mph - N/A   Scattered Clouds
9:53 AM 50.0 °F - 44.6 °F 82% 29.73 in 10.0 mi SW 11.5 mph - N/A   Scattered Clouds
10:53 AM 48.0 °F - 45.0 °F 89% 29.75 in 10.0 mi SW 11.5 mph - 0.04 in Rain Light Rain
11:53 AM 50.0 °F - 46.0 °F 86% 29.74 in 10.0 mi SW 9.2 mph - 0.00 in   Mostly Cloudy
12:53 PM 51.1 °F - 45.0 °F 80% 29.73 in 10.0 mi SSW 11.5 mph 18.4 mph 0.00 in Rain Light Rain
1:38 PM 48.2 °F - 42.8 °F 82% 29.72 in 10.0 mi SW 15.0 mph - 0.00 in Rain Light Rain
1:49 PM 48.2 °F - 44.6 °F 87% 29.72 in 10.0 mi SW 11.5 mph 24.2 mph 0.01 in Rain Light Rain
1:53 PM 48.0 °F - 45.0 °F 89% 29.73 in 10.0 mi SW 13.8 mph 24.2 mph 0.02 in Rain Light Rain
2:53 PM 48.0 °F - 44.1 °F 86% 29.73 in 10.0 mi SW 11.5 mph - 0.00 in   Mostly Cloudy
3:53 PM 46.9 °F - 43.0 °F 86% 29.72 in 10.0 mi SW 6.9 mph - N/A   Overcast
4:53 PM 46.9 °F - 44.1 °F 90% 29.73 in 10.0 mi South 6.9 mph - 0.00 in   Overcast
5:53 PM 45.0 °F 38.5 °F 43.0 °F 93% 29.73 in 10.0 mi SW 13.8 mph 23.0 mph 0.10 in Rain Light Rain
6:53 PM 45.0 °F 39.3 °F 43.0 °F 93% 29.73 in 10.0 mi SSW 11.5 mph - 0.04 in Rain Light Rain
7:53 PM 46.0 °F 40.2 °F 43.0 °F 89% 29.72 in 10.0 mi SSW 12.7 mph - 0.00 in   Overcast
8:53 PM 46.0 °F 40.6 °F 44.1 °F 93% 29.75 in 10.0 mi SW 11.5 mph - 0.00 in Rain Light Rain
9:03 PM 46.4 °F 41.9 °F 44.6 °F 93% 29.74 in 10.0 mi SW 9.2 mph - 0.01 in Rain Light Rain
9:15 PM 44.6 °F 38.1 °F 42.8 °F 93% 29.75 in 10.0 mi SW 13.8 mph - 0.01 in   Overcast
9:53 PM 44.1 °F 38.1 °F 42.1 °F 93% 29.78 in 10.0 mi SW 11.5 mph - 0.01 in   Partly Cloudy
10:53 PM 44.1 °F 36.5 °F 41.0 °F 89% 29.81 in 10.0 mi WSW 17.3 mph 27.6 mph 0.01 in Rain Light Rain
11:53 PM 42.1 °F 33.9 °F 39.0 °F 89% 29.84 in 10.0 mi SW 17.3 mph 24.2 mph 0.00 in Rain Light Rain